Regional Weather Roundup
Issued by NWS Cleveland, OH

Home | Current Version | Previous Version | Text Only | Print | Product List | Glossary Off
Versions: 1 2 3 4 5 6 7 8 9 10 11 12 13 14 15 16 17 18 19 20 21 22 23 24 25 26 27 28 29 30 31 32 33 34 35 36 37 38 39 40 41 42 43 44 45 46 47 48 49 50

000
ASUS41 KCLE 231602
RWRCLE
OHIO REGIONAL WEATHER ROUNDUP
NATIONAL WEATHER SERVICE CLEVELAND, OH
1200 PM EDT SAT MAY 23 2015

NOTE: "FAIR" INDICATES FEW OR NO CLOUDS BELOW 12,000 FEET WITH NO
SIGNIFICANT WEATHER AND/OR OBSTRUCTIONS TO VISIBILITY.

OHZ001>008-015>018-024>027-034-035-043-044-231700-
   NORTHWEST OHIO

CITY           SKY/WX    TMP DP  RH WIND       PRES   REMARKS
DEFIANCE       SUNNY     70  40  33 VRB6      30.39S
FINDLAY        SUNNY     71  39  31 S7        30.39S
TOLEDO EXPRESS SUNNY     68  35  29 VRB3      30.39S
TOLEDO EXEC    SUNNY     69  35  28 VRB6      30.40S
LIMA           SUNNY     70  40  33 SW8       30.39F
$$

OHZ009>014-019>023-028>033-038-089-231700-
   NORTHEAST OHIO

CITY           SKY/WX    TMP DP  RH WIND       PRES   REMARKS
CLE-HOPKINS    SUNNY     67  35  30 W5        30.43S
CLE-LAKEFRONT  SUNNY     62  46  55 N7        30.41S
CUY CO. ARPT   SUNNY     68  37  32 NW7       30.43R
LORAIN-ELYRIA  SUNNY     66  34  30 VRB3      30.42R
ASHTABULA      SUNNY     61  30  31 S6        30.44F
AKRON-CANTON   SUNNY     66  34  30 SW8       30.43S
WOOSTER        SUNNY     66  33  29 SW7       30.43S
MANSFIELD      SUNNY     66  33  29 SW5       30.42R
YOUNGSTOWN     MOSUNNY   62  31  31 VRB3      30.43F
$$

OHZ042-051>053-060>062-070>072-077>081-231700-
  SOUTHWEST OHIO

CITY           SKY/WX    TMP DP  RH WIND       PRES   REMARKS
CINC-COVINGTON PTSUNNY   73  51  46 CALM      30.40S
CINC-LUNKEN    PTSUNNY   70  55  59 S3        30.40F
HAMILTON       MOSUNNY   72  51  47 CALM      30.41S
DAYTON         MOSUNNY   72  47  40 SE5       30.41S
WRIGHT-PAT AFB SUNNY     71  46  41 S3        30.40S
DAYTON GENERAL MOSUNNY   71  49  45 VRB3      30.39F
WILMINGTON     SUNNY     73  38  27 W5        30.40S
$$

OHZ036-037-039>041-045>050-054>059-063>069-073>076-082>088-231700-
  CENTRAL AND SOUTHEAST OHIO

CITY           SKY/WX    TMP DP  RH WIND       PRES   REMARKS
COLUMBUS       MOSUNNY   68  41  37 S5        30.42R
OSU AIRPORT    SUNNY     68  41  37 S8        30.42S
BOLTON FIELD   SUNNY     68  43  40 S9        30.42
RICKENBACK AFB SUNNY     69  42  37 CALM      30.41S
NEWARK         SUNNY     69  40  34 S5        30.42R
MARION         SUNNY     68  38  33 S9        30.42R
LANCASTER      SUNNY     69  41  36 MISG      30.42S
ZANESVILLE     SUNNY     67  37  33 SE6       30.43R
NEW PHILLY     SUNNY     67  38  34 S5        30.44S
$$



USA.gov is the U.S. government's official web portal to all federal, state and local government web resources and services.